(167203) = 2003 TW20 = 1993 FR55

Discovered at Anderson Mesa on 2003-10-15 by LONEOS.

Orbit

Orbit type: Main Belt

Note: WebGL enabled browser required.

epoch2023-09-13.0
epoch JD2460200.5
perihelion date2020-09-22.03847
perihelion JD2459114.53847
argument of perihelion (°)10.40237
ascending node (°)48.14073
inclination (°)8.49260
eccentricity0.0592051
perihelion distance (AU)2.4196965
Tisserand w.r.t. Jupiter3.4
ΔV w.r.t. Earth (km/sec)10.1
semimajor axis (AU)2.5719701
mean anomaly (°)259.48927
mean daily motion (°/day)0.23894890
aphelion distance (AU)2.724
period (years)4.12
P-vector [x]0.52333163
P-vector [y]0.77082340
P-vector [z]0.36325650
Q-vector [x]-0.84500054
Q-vector [y]0.41441270
Q-vector [z]0.33798846
absolute magnitude16.07
phase slope0.15
uncertainty0
referenceMPEC 2023-P27
observations used537
oppositions17
arc length (days)8692
first opposition used1999
last opposition used2023
residual rms (arc-secs)0.69
perturbers coarse indicatorM-v
perturbers precise indicator003Ek
first observation date used1999-10-19.0
last observation date used2023-08-06.0
computer nameMPCLINUX
JD of orbit computation2456937.240144
perihelion JD uncertainty (days)1.7316E-04
argument of perihelion uncertainty (°)4.3876E-05
ascending node uncertainty (°)2.1545E-05
inclination uncertainty (°)3.9821E-06
eccentricity uncertainty 3.3508E-08
perihelion distance uncertainty (AU)8.3840E-08
Minimum Orbit Intersection Distances (in AU)
for orbit epoch: 2460200.5, reference: E2023-P27
Mercury2.10608
Venus1.69857
Earth1.43072
Mars0.87819
Jupiter2.48825
Saturn6.63256
Uranus15.8376
Neptune27.3943

Observations

557 total observations over interval: 1993 03 17.19062 – 2023 08 06.342183
These data are available for download (format description).

Date (UT) J2000 RA J2000 Dec Magn Location Ref
1993 03 17.19062 12 48 46.67 +04 53 59.2 18.6   809 – European Southern Observatory, La Silla MPC 23621
1993 03 18.21840 12 47 53.45 +04 58 11.1 18.7   809 – European Southern Observatory, La Silla MPC 23621
1999 10 19.25506 02 15 04.86 +08 59 02.1 19.1   704 – Lincoln Laboratory ETS, New Mexico MPS 90576
1999 10 19.26906 02 15 03.99 +08 59 01.1 19.1   704 – Lincoln Laboratory ETS, New Mexico MPS 90576
1999 10 19.28307 02 15 03.22 +08 58 58.5 19.1   704 – Lincoln Laboratory ETS, New Mexico MPS 90576
1999 10 19.29704 02 15 02.39 +08 58 58.7 19.1   704 – Lincoln Laboratory ETS, New Mexico MPS 90576
1999 10 19.31109 02 15 01.46 +08 58 56.5 18.7   704 – Lincoln Laboratory ETS, New Mexico MPS 90576
1999 11 12.21894 01 51 47.24 +08 35 29.5 19.1   704 – Lincoln Laboratory ETS, New Mexico MPS 90576
1999 11 12.24996 01 51 45.53 +08 35 30.4 19.5   704 – Lincoln Laboratory ETS, New Mexico MPS 90576
1999 11 12.27885 01 51 44.05 +08 35 30.3 19.0   704 – Lincoln Laboratory ETS, New Mexico MPS 90576
2001 02 16.30308 11 13 21.09 +19 00 16.3 18.5   704 – Lincoln Laboratory ETS, New Mexico MPS 90576
2001 02 16.31714 11 13 20.39 +19 00 20.2 19.0   704 – Lincoln Laboratory ETS, New Mexico MPS 90576
2001 02 16.33120 11 13 19.59 +19 00 27.4 19.8   704 – Lincoln Laboratory ETS, New Mexico MPS 90576
2003 09 28.23718 01 22 50.09 -00 03 17.0 19.3   704 – Lincoln Laboratory ETS, New Mexico MPS 90576
2003 09 28.25048 01 22 49.34 -00 03 20.0 19.5   704 – Lincoln Laboratory ETS, New Mexico MPS 90576
2003 09 28.26046 01 22 49.02 -00 03 23.8 18.8 R 699 – Lowell Observatory-LONEOS MPS 90576
2003 09 28.26321 01 22 48.67 -00 03 22.2 19.5   704 – Lincoln Laboratory ETS, New Mexico MPS 90576
2003 09 28.27374 01 22 48.13 -00 03 24.8   699 – Lowell Observatory-LONEOS MPS 90576
2003 09 28.27583 01 22 47.98 -00 03 24.3 19.8   704 – Lincoln Laboratory ETS, New Mexico MPS 90576
2003 09 28.28711 01 22 47.43 -00 03 26.6   699 – Lowell Observatory-LONEOS MPS 90576
2003 09 28.28890 01 22 47.32 -00 03 26.8 19.3   704 – Lincoln Laboratory ETS, New Mexico MPS 90576
2003 09 28.30046 01 22 46.76 -00 03 28.7   699 – Lowell Observatory-LONEOS MPS 90576
2003 09 30.315510 01 21 01.100 -00 09 19.84 19.60 V 645 – Apache Point-Sloan Digital Sky Survey MPS 137023
2003 09 30.318982 01 21 00.905 -00 09 20.42 20.31   645 – Apache Point-Sloan Digital Sky Survey MPS 137023
2003 10 15.23843 01 06 53.29 -00 46 37.1 19.4 R 699 – Lowell Observatory-LONEOS MPS 89587
2003 10 15.25829 01 06 52.15 -00 46 37.9   699 – Lowell Observatory-LONEOS MPS 89587
2003 10 15.27812 01 06 50.89 -00 46 39.3   699 – Lowell Observatory-LONEOS MPS 89587
2003 10 15.29798 01 06 49.71 -00 46 42.7   699 – Lowell Observatory-LONEOS MPS 89587
2003 10 19.25815 01 03 03.44 -00 53 21.0 19.3   704 – Lincoln Laboratory ETS, New Mexico MPS 89587
2003 10 19.26963 01 03 02.72 -00 53 23.0 19.3   704 – Lincoln Laboratory ETS, New Mexico MPS 89587
2003 10 19.29237 01 03 01.43 -00 53 25.7 19.8   704 – Lincoln Laboratory ETS, New Mexico MPS 89587
2003 10 22.253620 01 00 17.210 -00 57 06.09 19.24 V 645 – Apache Point-Sloan Digital Sky Survey MPS 137023
2003 10 22.257092 01 00 17.010 -00 57 06.32 19.88   645 – Apache Point-Sloan Digital Sky Survey MPS 137023
2003 10 24.248310 00 58 29.977 -00 58 55.17 19.15 V 645 – Apache Point-Sloan Digital Sky Survey MPS 137023
2003 10 24.251782 00 58 29.788 -00 58 55.31 19.90   645 – Apache Point-Sloan Digital Sky Survey MPS 137023
2003 10 25.21811 00 57 38.99 -00 59 34.2 19.1   704 – Lincoln Laboratory ETS, New Mexico MPS 90576
2003 10 25.22973 00 57 38.29 -00 59 36.1 19.4   704 – Lincoln Laboratory ETS, New Mexico MPS 90576
2003 10 25.24157 00 57 37.81 -00 59 36.4 19.3   704 – Lincoln Laboratory ETS, New Mexico MPS 90576
2003 10 25.25322 00 57 37.16 -00 59 36.7 19.1   704 – Lincoln Laboratory ETS, New Mexico MPS 90576
2003 10 29.22594 00 54 18.23 -01 00 53.0 18.9 R 699 – Lowell Observatory-LONEOS MPS 90576
2003 10 29.24589 00 54 17.26 -01 00 53.7   699 – Lowell Observatory-LONEOS MPS 90576
2003 10 29.26579 00 54 16.20 -01 00 53.3   699 – Lowell Observatory-LONEOS MPS 90576
2003 10 29.28565 00 54 15.31 -01 00 54.0   699 – Lowell Observatory-LONEOS MPS 90576
2003 11 19.162910 00 42 43.360 -00 24 56.67 19.94 V 645 – Apache Point-Sloan Digital Sky Survey MPS 137023
2003 11 19.166382 00 42 43.289 -00 24 55.81 20.61   645 – Apache Point-Sloan Digital Sky Survey MPS 137023
2003 11 20.169040 00 42 27.534 -00 21 24.76 20.13 V 645 – Apache Point-Sloan Digital Sky Survey MPS 137023
2003 11 20.172512 00 42 27.475 -00 21 24.02 20.84   645 – Apache Point-Sloan Digital Sky Survey MPS 137023
2005 01 17.459087 10 27 53.104 +23 36 26.64 20.13 V 645 – Apache Point-Sloan Digital Sky Survey MPS 390116
2005 01 17.462559 10 27 52.992 +23 36 27.90 20.83   645 – Apache Point-Sloan Digital Sky Survey MPS 390116
2005 02 01.34815 10 17 32.73 +25 11 58.5 19.1 R 703 – Catalina Sky Survey MPS 125692
2005 02 01.35670 10 17 32.22 +25 12 02.4 18.8 R 703 – Catalina Sky Survey MPS 125692
2005 02 01.36527 10 17 31.87 +25 12 04.7 19.2 R 703 – Catalina Sky Survey MPS 125692
2005 02 01.37380 10 17 31.49 +25 12 07.1 18.8 R 703 – Catalina Sky Survey MPS 125692
2005 02 01.42796 10 17 28.51 +25 12 27.9 19.3   644 – Palomar Mountain/NEAT MPS 125692
2005 02 01.44928 10 17 27.33 +25 12 35.9 19.9   644 – Palomar Mountain/NEAT MPS 125692
2005 02 01.46987 10 17 26.24 +25 12 43.5 19.6   644 – Palomar Mountain/NEAT MPS 125692
2005 03 12.30626 09 41 30.17 +27 13 27.8 19.1 R 699 – Lowell Observatory-LONEOS MPS 129075
2005 03 12.32332 09 41 29.42 +27 13 26.6   699 – Lowell Observatory-LONEOS MPS 129075
2005 03 12.34038 09 41 28.70 +27 13 25.0   699 – Lowell Observatory-LONEOS MPS 129075
2005 03 12.35744 09 41 28.01 +27 13 25.0   699 – Lowell Observatory-LONEOS MPS 129075
2007 09 03.43741 00 32 33.46 -08 32 37.0 19.4 V F84 – Hibiscus Observatory, Punaauia MPS 222476
2007 09 03.47847 00 32 31.71 -08 32 49.6 19.4 V F84 – Hibiscus Observatory, Punaauia MPS 222476
2007 09 03.51351 00 32 30.38 -08 32 58.1 19.2 V F84 – Hibiscus Observatory, Punaauia MPS 222476
2007 09 14.31572 00 24 12.27 -09 19 18.8 19.1 V 703 – Catalina Sky Survey MPS 216150
2007 09 14.32344 00 24 11.88 -09 19 22.0 18.9 V 703 – Catalina Sky Survey MPS 216150
2007 09 14.33118 00 24 11.48 -09 19 22.4 19.1 V 703 – Catalina Sky Survey MPS 216150
2007 09 14.33891 00 24 11.01 -09 19 24.8 18.9 V 703 – Catalina Sky Survey MPS 216150
2007 09 15.31019 00 23 20.49 -09 23 26.0 19.0 R 699 – Lowell Observatory-LONEOS MPS 216150
2007 09 15.33579 00 23 19.15 -09 23 30.0   699 – Lowell Observatory-LONEOS MPS 216150
2007 09 15.36139 00 23 17.69 -09 23 38.2   699 – Lowell Observatory-LONEOS MPS 216150
2007 09 15.38700 00 23 16.26 -09 23 43.8   699 – Lowell Observatory-LONEOS MPS 216150
2007 10 20.16645 23 53 06.08 -10 26 59.5 20.3 R 448 – Desert Moon Observatory, Las Cruces MPS 222476
2007 10 20.18863 23 53 05.12 -10 26 57.2 19.7 R 448 – Desert Moon Observatory, Las Cruces MPS 222476
2007 10 20.21069 23 53 04.30 -10 26 55.8 19.2 R 448 – Desert Moon Observatory, Las Cruces MPS 222476
2007 10 20.24177 23 53 03.04 -10 26 53.3 19.9 V G96 – Mt. Lemmon Survey MPS 222476
2007 10 20.24892 23 53 02.72 -10 26 53.1 20.0 V G96 – Mt. Lemmon Survey MPS 222476
2007 10 20.25617 23 53 02.43 -10 26 52.5 20.0 V G96 – Mt. Lemmon Survey MPS 222476
2007 10 20.26344 23 53 02.14 -10 26 52.1 19.9 V G96 – Mt. Lemmon Survey MPS 222476
2008 12 01.47594 09 25 14.73 +25 45 51.2 21.1 V G96 – Mt. Lemmon Survey MPS 268669
2008 12 01.48257 09 25 14.98 +25 45 52.4 21.2 V G96 – Mt. Lemmon Survey MPS 268669
2008 12 01.48927 09 25 15.09 +25 45 53.3 21.3 V G96 – Mt. Lemmon Survey MPS 268669
2008 12 01.49597 09 25 15.27 +25 45 54.7 20.8 V G96 – Mt. Lemmon Survey MPS 268669
2009 01 20.37574 09 11 08.23 +30 25 37.7 19.4 V 703 – Catalina Sky Survey MPS 276000
2009 01 20.38219 09 11 07.90 +30 25 40.7 19.2 V 703 – Catalina Sky Survey MPS 276000
2009 01 20.38875 09 11 07.51 +30 25 42.4 19.4 V 703 – Catalina Sky Survey MPS 276000
2009 01 20.39520 09 11 07.08 +30 25 44.3 19.4 V 703 – Catalina Sky Survey MPS 276000
2009 01 29.27732 09 01 57.21 +31 13 35.2 19.7 V 703 – Catalina Sky Survey MPS 276000
